Weather History for KCOE - February, 2014

Change the Weather History Date:

Wednesday, February 12, 2014

  Actual Average Record
Temperature  
Mean Temperature 40 °F -  
Max Temperature 46 °F 36 °F 55 °F (2015)
Min Temperature 33 °F 22 °F 10 °F (2001)
Degree Days  
Heating Degree Days 26    
Moisture  
Dew Point 35 °F    
Average Humidity 80    
Maximum Humidity 93    
Minimum Humidity 62    
Precipitation  
Precipitation 0.12 in - - ()
Sea Level Pressure  
Sea Level Pressure 29.69 in    
Wind  
Wind Speed 13 mph (SSW)    
Max Wind Speed 32 mph    
Max Gust Speed 40 mph    
Visibility 10 miles    
Events      
Averages and records for this station are not official NWS values.
T = Trace of Precipitation, MM = Missing Value Source: NWS Daily Summary

Daily Weather History Graph

Daily Weather History Graph

Search for Another Location

Airport or City:

Trip Planner

Search our weather history database for the weather conditions in past years. The results will help you decide how hot, cold, wet, or windy it might be!

Date:

Astronomy

Feb. 12, 2014 Rise Set
Actual Time 6:57 AM PST 5:05 PM PST
Civil Twilight 6:25 AM PST 5:37 PM PST
Nautical Twilight 5:49 AM PST 6:14 PM PST
Astronomical Twilight 5:13 AM PST 6:49 PM PST
Moon 3:20 PM PST (2/12) 5:21 AM PST (2/12)
Length of Visible Light 11h 11m
Length of Day
10h 07m
Waxing Gibbous, 96% of the Moon is Illuminated
Feb 12
Waxing Gibbous
Feb 14
Full
Feb 22
Last Quarter
Mar 1
New
Mar 8
First Quarter

Hourly Weather History & Observations

Time (PST) Temp. Windchill Dew Point Humidity Pressure Visibility Wind Dir Wind Speed Gust Speed Precip Events Conditions
12:15 AM 35.6 °F 29.2 °F 32.0 °F 87% 29.85 in 10.0 mi South 8.1 mph - N/A   Overcast
12:35 AM 33.8 °F 27.0 °F 32.0 °F 93% 29.82 in 10.0 mi South 8.1 mph - N/A   Overcast
12:55 AM 35.6 °F 28.6 °F 32.0 °F 87% 29.79 in 10.0 mi South 9.2 mph - N/A   Overcast
1:15 AM 35.6 °F 28.0 °F 33.8 °F 93% 29.77 in 10.0 mi South 10.4 mph - 0.01 in   Overcast
1:35 AM 35.6 °F 29.2 °F 33.8 °F 93% 29.76 in 10.0 mi South 8.1 mph - 0.01 in   Overcast
1:55 AM 35.6 °F 28.6 °F 33.8 °F 93% 29.73 in 10.0 mi South 9.2 mph - 0.01 in   Overcast
2:15 AM 35.6 °F 31.7 °F 32.0 °F 87% 29.72 in 10.0 mi South 4.6 mph - 0.01 in   Overcast
2:35 AM 35.6 °F 28.6 °F 33.8 °F 93% 29.70 in 10.0 mi SW 9.2 mph - 0.01 in   Overcast
2:55 AM 35.6 °F 27.1 °F 33.8 °F 93% 29.69 in 9.0 mi SSW 12.7 mph - 0.02 in   Overcast
3:15 AM 35.6 °F 25.2 °F 33.8 °F 93% 29.66 in 10.0 mi South 18.4 mph - 0.01 in   Overcast
3:35 AM 35.6 °F 28.0 °F 32.0 °F 87% 29.65 in 5.0 mi SSW 10.4 mph - 0.03 in   Overcast
3:55 AM 35.6 °F 27.1 °F 32.0 °F 87% 29.65 in 5.0 mi SSW 12.7 mph - 0.04 in   Overcast
4:15 AM 35.6 °F 30.7 °F 33.8 °F 93% 29.63 in 5.0 mi SSW 5.8 mph - 0.03 in   Overcast
4:35 AM 35.6 °F 28.6 °F 33.8 °F 93% 29.61 in 3.0 mi South 9.2 mph - 0.04 in   Overcast
4:55 AM 35.6 °F 26.6 °F 33.8 °F 93% 29.59 in 4.0 mi South 13.8 mph - 0.04 in   Overcast
5:15 AM 35.6 °F 28.6 °F 33.8 °F 93% 29.57 in 8.0 mi SSE 9.2 mph - 0.01 in   Overcast
5:35 AM 37.4 °F 33.8 °F 35.6 °F 93% 29.56 in 6.0 mi SE 4.6 mph - 0.01 in   Overcast
5:55 AM 37.4 °F 33.8 °F 35.6 °F 93% 29.55 in 8.0 mi ESE 4.6 mph - 0.01 in   Overcast
6:15 AM 37.4 °F 30.3 °F 35.6 °F 93% 29.54 in 10.0 mi SSE 10.4 mph - N/A   Overcast
6:35 AM 39.2 °F 30.5 °F 37.4 °F 93% 29.52 in 10.0 mi South 16.1 mph 20.7 mph N/A   Mostly Cloudy
6:55 AM 42.8 °F 32.7 °F 37.4 °F 81% 29.50 in 10.0 mi SSW 27.6 mph 33.4 mph N/A   Overcast
7:15 AM 42.8 °F 33.8 °F 35.6 °F 76% 29.51 in 10.0 mi SW 21.9 mph 28.8 mph N/A   Overcast
7:35 AM 44.6 °F 35.3 °F 37.4 °F 76% 29.53 in 10.0 mi WSW 26.5 mph 40.3 mph N/A   Overcast
7:55 AM 44.6 °F 34.4 °F 35.6 °F 71% 29.54 in 10.0 mi WSW 32.2 mph 40.3 mph N/A   Overcast
8:15 AM 42.8 °F 33.3 °F 35.6 °F 76% 29.55 in 10.0 mi WSW 24.2 mph 33.4 mph N/A   Overcast
8:35 AM 41.0 °F 30.7 °F 35.6 °F 81% 29.57 in 10.0 mi WSW 25.3 mph 33.4 mph N/A   Overcast
8:55 AM 41.0 °F 31.6 °F 35.6 °F 81% 29.58 in 10.0 mi WSW 20.7 mph 32.2 mph N/A   Mostly Cloudy
9:15 AM 41.0 °F 30.9 °F 35.6 °F 81% 29.58 in 10.0 mi West 24.2 mph 33.4 mph N/A   Mostly Cloudy
9:35 AM 41.0 °F 31.4 °F 35.6 °F 81% 29.60 in 10.0 mi West 21.9 mph 35.7 mph N/A   Mostly Cloudy
9:55 AM 41.0 °F 31.1 °F 35.6 °F 81% 29.61 in 10.0 mi West 23.0 mph 33.4 mph N/A   Mostly Cloudy
10:15 AM 42.8 °F 34.3 °F 35.6 °F 76% 29.63 in 10.0 mi WSW 19.6 mph 32.2 mph N/A   Mostly Cloudy
10:35 AM 41.0 °F 32.2 °F 35.6 °F 81% 29.65 in 10.0 mi WSW 18.4 mph 27.6 mph N/A   Overcast
10:55 AM 41.0 °F 32.2 °F 35.6 °F 81% 29.65 in 10.0 mi WSW 18.4 mph 29.9 mph N/A   Mostly Cloudy
11:15 AM 42.8 °F 34.8 °F 35.6 °F 76% 29.66 in 10.0 mi WSW 17.3 mph - N/A   Mostly Cloudy
11:35 AM 42.8 °F 34.0 °F 37.4 °F 81% 29.66 in 10.0 mi WSW 20.7 mph 26.5 mph N/A   Mostly Cloudy
11:55 AM 44.6 °F 36.6 °F 37.4 °F 76% 29.66 in 10.0 mi WSW 19.6 mph 24.2 mph N/A   Scattered Clouds
12:15 PM 44.6 °F 36.4 °F 35.6 °F 71% 29.66 in 10.0 mi WSW 20.7 mph 28.8 mph N/A   Partly Cloudy
12:35 PM 44.6 °F 35.9 °F 37.4 °F 76% 29.67 in 10.0 mi WSW 23.0 mph - N/A   Clear
12:55 PM 44.6 °F 35.3 °F 35.6 °F 71% 29.66 in 10.0 mi WSW 26.5 mph 32.2 mph N/A   Partly Cloudy
1:15 PM 44.6 °F 35.5 °F 35.6 °F 71% 29.67 in 10.0 mi WSW 25.3 mph 33.4 mph N/A   Clear
1:35 PM 44.6 °F 36.6 °F 35.6 °F 71% 29.68 in 10.0 mi WSW 19.6 mph 31.1 mph N/A   Clear
1:55 PM 46.4 °F 39.0 °F 35.6 °F 66% 29.70 in 10.0 mi WSW 19.6 mph 26.5 mph N/A   Clear
2:15 PM 46.4 °F 38.7 °F 33.8 °F 62% 29.70 in 10.0 mi WSW 20.7 mph 27.6 mph N/A   Clear
2:35 PM 46.4 °F 38.7 °F 33.8 °F 62% 29.71 in 10.0 mi WSW 20.7 mph 29.9 mph N/A   Clear
2:55 PM 44.6 °F 37.8 °F 33.8 °F 66% 29.72 in 10.0 mi WSW 15.0 mph 18.4 mph N/A   Clear
3:15 PM 44.6 °F 37.2 °F 33.8 °F 66% 29.73 in 10.0 mi WSW 17.3 mph 23.0 mph N/A   Clear
3:35 PM 44.6 °F 37.2 °F 33.8 °F 66% 29.75 in 10.0 mi WSW 17.3 mph 28.8 mph N/A   Clear
3:55 PM 44.6 °F 37.8 °F 33.8 °F 66% 29.76 in 10.0 mi SW 15.0 mph 21.9 mph N/A   Clear
4:15 PM 42.8 °F 35.8 °F 32.0 °F 66% 29.76 in 10.0 mi SW 13.8 mph - N/A   Clear
4:35 PM 42.8 °F 36.2 °F 32.0 °F 66% 29.77 in 10.0 mi SSW 12.7 mph - N/A   Partly Cloudy
4:55 PM 42.8 °F 36.6 °F 32.0 °F 66% 29.77 in 10.0 mi South 11.5 mph - N/A   Partly Cloudy
5:15 PM 42.8 °F 36.6 °F 32.0 °F 66% 29.77 in 10.0 mi SSE 11.5 mph - N/A   Clear
5:35 PM 42.8 °F 37.5 °F 33.8 °F 70% 29.78 in 10.0 mi South 9.2 mph - N/A   Clear
5:55 PM 42.8 °F 38.6 °F 32.0 °F 66% 29.78 in 10.0 mi South 6.9 mph - N/A   Clear
6:15 PM 41.0 °F 36.4 °F 33.8 °F 76% 29.78 in 10.0 mi South 6.9 mph - N/A   Clear
6:35 PM 41.0 °F 35.8 °F 33.8 °F 76% 29.78 in 10.0 mi South 8.1 mph - N/A   Clear
6:55 PM 42.8 °F 36.6 °F 35.6 °F 76% 29.78 in 10.0 mi South 11.5 mph - N/A   Clear
7:15 PM 42.8 °F 38.0 °F 35.6 °F 76% 29.77 in 10.0 mi SSE 8.1 mph - N/A   Clear
7:35 PM 42.8 °F 37.5 °F 35.6 °F 76% 29.77 in 10.0 mi SSE 9.2 mph - N/A   Clear
7:55 PM 41.0 °F 35.8 °F 35.6 °F 81% 29.77 in 10.0 mi SSE 8.1 mph - N/A   Clear
8:15 PM 41.0 °F 35.8 °F 35.6 °F 81% 29.77 in 10.0 mi SSE 8.1 mph - N/A   Clear
8:35 PM 41.0 °F 35.2 °F 35.6 °F 81% 29.77 in 10.0 mi SE 9.2 mph - N/A   Clear
8:55 PM 41.0 °F 35.2 °F 35.6 °F 81% 29.77 in 10.0 mi SSE 9.2 mph - N/A   Clear
9:15 PM 39.2 °F 33.0 °F 33.8 °F 81% 29.76 in 10.0 mi South 9.2 mph - N/A   Clear
9:35 PM 39.2 °F 33.0 °F 35.6 °F 87% 29.76 in 10.0 mi South 9.2 mph - N/A   Clear
9:55 PM 39.2 °F 33.6 °F 33.8 °F 81% 29.76 in 10.0 mi South 8.1 mph - N/A   Clear
10:15 PM 39.2 °F 32.5 °F 35.6 °F 87% 29.76 in 10.0 mi South 10.4 mph - N/A   Clear
10:35 PM 39.2 °F 34.2 °F 33.8 °F 81% 29.76 in 10.0 mi South 6.9 mph - N/A   Mostly Cloudy
10:55 PM 39.2 °F 35.0 °F 35.6 °F 87% 29.76 in 10.0 mi South 5.8 mph - N/A   Overcast
11:15 PM 39.2 °F 37.0 °F 35.6 °F 87% 29.75 in 10.0 mi SSE 3.5 mph - N/A   Overcast
11:35 PM 37.4 °F 33.8 °F 33.8 °F 87% 29.74 in 10.0 mi South 4.6 mph - N/A   Overcast
11:55 PM 37.4 °F 32.1 °F 33.8 °F 87% 29.72 in 10.0 mi South 6.9 mph - N/A   Overcast